| time (UTC) | temp F | wind direction | speed knots | gust knots | rain 1hr in | rain 24hr in | rain mn in | humidity % | barometer mb |
| 20260905154518 | 51 | 10 | 0.0 | 0.0 | 0.00 | 0.00 | 0.00 | 94 | 1017.6 |
| 20260905153010 | 48 | 10 | 0.0 | 0.0 | 0.00 | 0.00 | 0.00 | 94 | 1017.8 |
| 20260905151546 | 45 | 10 | 0.0 | 0.0 | 0.00 | 0.00 | 0.00 | 94 | 1017.9 |
| 20260905150043 | 44 | 10 | 0.0 | 0.0 | 0.00 | 0.00 | 0.00 | 94 | 1017.8 |
| 20260905144535 | 41 | 10 | 0.0 | 0.0 | 0.00 | 0.00 | 0.00 | 93 | 1017.7 |
| 20260905143022 | 42 | 10 | 0.0 | 0.0 | 0.00 | 0.00 | 0.00 | 93 | 1017.9 |
| 20260905141502 | 41 | 10 | 0.0 | 0.0 | 0.00 | 0.00 | 0.00 | 94 | 1017.7 |
| 20260905140059 | 39 | 10 | 0.0 | 0.0 | 0.00 | 0.00 | 0.07 | 93 | 1017.6 |
| 20260905134544 | 37 | 10 | 0.0 | 0.0 | 0.00 | 0.00 | 0.07 | 94 | 1017.5 |
| 20260905133037 | 36 | 10 | 0.0 | 0.0 | 0.00 | 0.00 | 0.07 | 93 | 1017.3 |
| 20260905131517 | 36 | 10 | 0.0 | 0.0 | 0.00 | 0.00 | 0.07 | 93 | 1017.2 |
| 20260905130018 | 36 | 10 | 0.0 | 0.0 | 0.00 | 0.00 | 0.07 | 93 | 1017.0 |
| 20260905124556 | 37 | 10 | 0.0 | 0.0 | 0.00 | 0.00 | 0.07 | 93 | 1016.8 |
| 20260905123055 | 37 | 10 | 0.0 | 0.0 | 0.00 | 0.00 | 0.07 | 93 | 1016.7 |
| 20260905121537 | 37 | 10 | 0.0 | 0.0 | 0.00 | 0.00 | 0.07 | 93 | 1016.7 |
| 20260905120038 | 37 | 10 | 0.0 | 0.0 | 0.00 | 0.00 | 0.07 | 92 | 1016.8 |
| 20260905114517 | 38 | 10 | 0.0 | 0.0 | 0.00 | 0.00 | 0.07 | 92 | 1016.5 |
| 20260905113012 | 39 | 10 | 0.0 | 0.0 | 0.00 | 0.00 | 0.07 | 92 | 1016.3 |
| 20260905111605 | 39 | 10 | 0.0 | 0.0 | 0.00 | 0.00 | 0.07 | 92 | 1016.1 |
| 20260905110051 | 39 | 10 | 0.0 | 0.0 | 0.00 | 0.00 | 0.07 | 92 | 1015.8 |
| 20260905104543 | 39 | 10 | 0.0 | 0.0 | 0.00 | 0.00 | 0.07 | 92 | 1015.7 |
| 20260905103036 | 39 | 10 | 0.0 | 0.0 | 0.00 | 0.00 | 0.07 | 92 | 1015.8 |
| 20260905101514 | 40 | 10 | 0.0 | 0.0 | 0.00 | 0.00 | 0.07 | 92 | 1015.9 |
| 20260905100013 | 40 | 10 | 0.0 | 0.0 | 0.00 | 0.00 | 0.07 | 92 | 1015.7 |
| 20260905094606 | 40 | 10 | 0.0 | 0.0 | 0.00 | 0.00 | 0.07 | 92 | 1015.7 |
| 20260905093054 | 40 | 10 | 0.0 | 0.0 | 0.00 | 0.00 | 0.07 | 92 | 1015.7 |
| 20260905091535 | 40 | 10 | 0.0 | 0.0 | 0.00 | 0.00 | 0.07 | 91 | 1015.6 |
| 20260905090033 | 42 | 10 | 0.0 | 0.0 | 0.00 | 0.00 | 0.07 | 91 | 1015.6 |
| 20260905084522 | 42 | 10 | 0.0 | 0.0 | 0.00 | 0.00 | 0.07 | 91 | 1015.4 |
| 20260905083016 | 42 | 10 | 0.0 | 0.0 | 0.00 | 0.00 | 0.07 | 91 | 1015.2 |
| 20260905081603 | 42 | 10 | 0.0 | 0.0 | 0.00 | 0.00 | 0.07 | 90 | 1015.1 |
| 20260905080057 | 43 | 10 | 0.0 | 0.0 | 0.00 | 0.00 | 0.07 | 91 | 1015.4 |
| 20260905074533 | 43 | 10 | 0.0 | 0.0 | 0.00 | 0.00 | 0.07 | 90 | 1015.1 |
| 20260905073041 | 44 | 10 | 0.0 | 0.0 | 0.00 | 0.00 | 0.07 | 90 | 1014.9 |
| 20260905071515 | 44 | 10 | 0.0 | 0.0 | 0.00 | 0.00 | 0.07 | 90 | 1015.0 |
| 20260905070014 | 43 | 10 | 0.0 | 0.0 | 0.00 | 0.00 | 0.07 | 89 | 1014.5 |
| 20260905064557 | 43 | 10 | 0.0 | 0.0 | 0.00 | 0.00 | 0.07 | 89 | 1014.7 |
| 20260905063052 | 44 | 10 | 0.0 | 0.0 | 0.00 | 0.00 | 0.07 | 89 | 1014.7 |
| 20260905061550 | 45 | 10 | 0.0 | 0.0 | 0.00 | 0.00 | 0.07 | 88 | 1014.7 |
| 20260905060033 | 46 | 10 | 0.0 | 0.0 | 0.00 | 0.00 | 0.07 | 88 | 1014.8 |
| 20260905054517 | 46 | 10 | 0.0 | 0.0 | 0.00 | 0.00 | 0.07 | 87 | 1014.2 |
| 20260905053020 | 47 | 10 | 0.0 | 0.0 | 0.00 | 0.00 | 0.07 | 87 | 1014.4 |
| 20260905051557 | 47 | 10 | 0.0 | 0.0 | 0.00 | 0.00 | 0.07 | 86 | 1014.5 |
| 20260905050057 | 48 | 10 | 0.0 | 0.0 | 0.00 | 0.00 | 0.07 | 86 | 1014.6 |
| 20260905044540 | 48 | 10 | 0.0 | 0.0 | 0.00 | 0.00 | 0.07 | 84 | 1014.7 |
| 20260905043105 | 49 | 10 | 0.0 | 0.0 | 0.00 | 0.00 | 0.07 | 83 | 1014.9 |
| 20260905041522 | 50 | 10 | 0.0 | 0.0 | 0.00 | 0.00 | 0.07 | 82 | 1014.9 |
| 20260905040026 | 51 | 10 | 0.0 | 0.0 | 0.00 | 0.00 | 0.07 | 80 | 1015.0 |
| 20260905034511 | 51 | 10 | 0.0 | 0.0 | 0.00 | 0.00 | 0.07 | 79 | 1014.8 |
| 20260905033008 | 52 | 10 | 0.0 | 0.0 | 0.00 | 0.00 | 0.07 | 77 | 1014.7 |
| 20260905031508 | 53 | 10 | 0.0 | 0.0 | 0.00 | 0.00 | 0.07 | 74 | 1014.7 |
| 20260905030008 | 55 | 10 | 0.0 | 0.0 | 0.00 | 0.00 | 0.07 | 70 | 1014.7 |
| 20260905024508 | 56 | 10 | 0.0 | 0.0 | 0.00 | 0.00 | 0.07 | 67 | 1014.5 |
| 20260905023007 | 58 | 10 | 0.0 | 0.0 | 0.00 | 0.00 | 0.07 | 64 | 1014.4 |
| 20260905021507 | 59 | 10 | 0.0 | 0.0 | 0.00 | 0.00 | 0.07 | 62 | 1014.3 |
| 20260905020006 | 60 | 10 | 0.0 | 0.0 | 0.00 | 0.00 | 0.07 | 60 | 1014.1 |
| 20260905014547 | 60 | 10 | 0.0 | 0.0 | 0.00 | 0.00 | 0.07 | 58 | 1014.3 |
| 20260905013056 | 61 | 10 | 0.0 | 0.0 | 0.00 | 0.00 | 0.07 | 56 | 1014.4 |
| 20260905011530 | 61 | 10 | 0.9 | 0.0 | 0.00 | 0.00 | 0.07 | 53 | 1014.2 |
| 20260905010031 | 61 | 10 | 0.9 | 0.0 | 0.00 | 0.00 | 0.07 | 54 | 1014.2 |
| 20260905004512 | 62 | 294 | 0.9 | 0.0 | 0.00 | 0.00 | 0.07 | 49 | 1014.1 |
| 20260905003018 | 62 | 294 | 0.9 | 0.0 | 0.00 | 0.00 | 0.07 | 49 | 1014.3 |
| 20260905001557 | 62 | 293 | 0.0 | 0.0 | 0.00 | 0.00 | 0.07 | 50 | 1014.2 |
| 20260905000056 | 62 | 293 | 1.7 | 0.0 | 0.00 | 0.00 | 0.07 | 48 | 1014.1 |
| 20260904234543 | 63 | 286 | 1.7 | 0.0 | 0.00 | 0.00 | 0.07 | 46 | 1014.0 |
| 20260904233037 | 62 | 284 | 0.0 | 0.0 | 0.00 | 0.00 | 0.07 | 49 | 1013.9 |
| 20260904231522 | 62 | 281 | 0.9 | 0.0 | 0.00 | 0.00 | 0.07 | 51 | 1013.7 |
| 20260904230022 | 63 | 280 | 1.7 | 0.0 | 0.00 | 0.00 | 0.07 | 50 | 1013.7 |
| 20260904224559 | 64 | 277 | 0.9 | 0.0 | 0.00 | 0.00 | 0.07 | 45 | 1014.0 |
| 20260904223100 | 64 | 279 | 0.0 | 0.0 | 0.00 | 0.00 | 0.07 | 43 | 1013.7 |
| 20260904221542 | 63 | 279 | 0.9 | 0.0 | 0.00 | 0.00 | 0.07 | 44 | 1013.7 |
| 20260904220105 | 63 | 279 | 0.9 | 0.0 | 0.00 | 0.00 | 0.07 | 46 | 1013.5 |
| 20260904214533 | 63 | 280 | 1.7 | 0.0 | 0.00 | 0.00 | 0.07 | 45 | 1013.7 |
| 20260904213020 | 62 | 286 | 1.7 | 0.0 | 0.00 | 0.00 | 0.07 | 45 | 1013.6 |
| 20260904211501 | 63 | 287 | 0.9 | 0.0 | 0.00 | 0.00 | 0.07 | 47 | 1013.9 |
| 20260904210200 | 62 | 287 | 1.7 | 0.0 | 0.00 | 0.00 | 0.07 | 50 | 1013.8 |
| 20260904204541 | 62 | 287 | 2.6 | 0.0 | 0.00 | 0.00 | 0.07 | 52 | 1014.0 |
| 20260904203048 | 62 | 256 | 1.7 | 0.0 | 0.00 | 0.00 | 0.07 | 50 | 1013.9 |
| 20260904201519 | 61 | 214 | 0.0 | 0.0 | 0.00 | 0.00 | 0.07 | 55 | 1014.1 |
| 20260904200019 | 60 | 215 | 0.9 | 0.0 | 0.00 | 0.00 | 0.07 | 57 | 1014.2 |
| 20260904194613 | 61 | 215 | 0.0 | 0.0 | 0.00 | 0.00 | 0.07 | 57 | 1014.2 |
| 20260904193105 | 59 | 216 | 0.0 | 0.0 | 0.00 | 0.00 | 0.07 | 59 | 1014.6 |
| 20260904191546 | 60 | 233 | 1.7 | 0.0 | 0.00 | 0.00 | 0.07 | 60 | 1014.6 |
| 20260904190046 | 59 | 265 | 1.7 | 0.0 | 0.00 | 0.00 | 0.07 | 62 | 1014.4 |
| 20260904184526 | 59 | 178 | 0.9 | 0.0 | 0.00 | 0.00 | 0.07 | 65 | 1014.6 |
| 20260904183018 | 58 | 177 | 0.9 | 0.0 | 0.00 | 0.00 | 0.07 | 65 | 1014.6 |
| 20260904181617 | 57 | 180 | 0.9 | 0.0 | 0.00 | 0.00 | 0.07 | 68 | 1014.7 |
| 20260904180121 | 56 | 180 | 0.9 | 0.0 | 0.00 | 0.00 | 0.07 | 67 | 1014.6 |
| 20260904174608 | 56 | 182 | 0.9 | 0.0 | 0.00 | 0.00 | 0.07 | 70 | 1014.7 |
| 20260904173041 | 55 | 186 | 0.9 | 0.0 | 0.00 | 0.00 | 0.07 | 74 | 1014.6 |
| 20260904171535 | 54 | 180 | 0.9 | 0.0 | 0.00 | 0.00 | 0.07 | 78 | 1014.7 |
| 20260904170015 | 52 | 194 | 2.6 | 0.0 | 0.00 | 0.00 | 0.07 | 84 | 1014.6 |
| 20260904164512 | 50 | 164 | 1.7 | 0.0 | 0.00 | 0.00 | 0.07 | 91 | 1014.5 |
| 20260904163047 | 49 | 151 | 0.9 | 0.0 | 0.00 | 0.00 | 0.06 | 93 | 1014.4 |
| 20260904161551 | 49 | 150 | 2.6 | 0.0 | 0.00 | 0.00 | 0.05 | 94 | 1014.4 |
| 20260904160032 | 49 | 101 | 0.9 | 0.0 | 0.00 | 0.00 | 0.05 | 95 | 1014.3 |